Torna al catalogo

FENGYUN 1C DEB

AttivoPO
NORAD 36147·DEBRIS·🇨🇳 China

Lanciato May 10, 1999 da Taiyuan Satellite Launch Center

Loading…

Prossimi Passaggi (prossime 24 ore)

TLE

In scadenzaSource: Space-Track

Epoca: Sep 9, 2026, 07:59 UTC

1 36147U 99025DRU 26252.33319608  .00000754  00000-0  72545-3 0  9998
2 36147  98.5041 286.0686 0437009 287.3891  67.9915 13.47212007636400

Traccia FENGYUN 1C DEB in tempo reale con AllMySat

Download on the App Store